Location: Unspecified
(0.0000°N, 0.0000°E)
Time: 01:50:24
(UTC+00:00)

Tiangong 1 - Pass Details

Date: 22 May 2017
Orbit: 321 x 345 km, 42.8° (Epoch: 22 June)

Event Time Altitude Azimuth Distance (km) Brightness Sun altitude
Rises 18:34:58 0° 347° (NNW) 2,105 5.3 -8.9°
Reaches altitude 10° 18:38:15 10° 29° (NNE) 1,262 3.6 -9.7°
Maximum altitude 18:38:59 11° 44° (NE) 1,220 3.4 -9.9°
Drops below altitude 10° 18:39:44 10° 59° (ENE) 1,259 3.3 -10.1°
Enters shadow 18:40:10 - 68° (ENE) 1,316 3.3 -10.2°
